Regional Weather Roundup
Issued by NWS

Home | Current Version | Previous Version | Text Only | Print | Product List | Glossary Off
Versions: 1 2 3 4 5 6 7 8 9 10 11 12 13 14 15 16 17 18 19 20 21 22 23 24 25 26 27 28 29 30 31 32 33 34 35 36 37 38 39 40 41 42 43 44 45 46 47 48 49 50

000
ASUS43 KMPX 232201
RWRMN
WEATHER ROUNDUP FOR MINNESOTA
NATIONAL WEATHER SERVICE TWIN CITIES/CHANHASSEN MN
500 PM CDT TUE MAY 23 2017


NOTE: "FAIR" INDICATES FEW OR NO CLOUDS BELOW 12,000 FEET WITH NO
SIGNIFICANT WEATHER AND/OR OBSTRUCTIONS TO VISIBILITY. N/A MEANS
CURRENT SKY AND/OR WEATHER CONDITIONS ARE NOT AVAILABLE.

MNZ060>063-068>070-232300-
   Twin Cities Metro

CITY           SKY/WX    TMP DP  RH WIND       PRES   REMARKS
TWIN CITIES    CLOUDY    60  44  55 NE13      29.79F
ST PAUL        CLOUDY    59  47  64 E7        29.80F
CRYSTAL        PTSUNNY   62  42  47 N9        29.78F
BLAINE         PTSUNNY   63  45  51 NE10      29.80S
LAKEVILLE      CLOUDY    57  48  72 E10       29.79S
EDEN PRAIRIE   PTSUNNY   61  47  59 NE7       29.78F
SOUTH ST PAUL  CLOUDY    59  46  61 E7        29.79S
LAKE ELMO      PTSUNNY   59  48  67 E8        29.81S
$$
MNZ001>005-007-008-013>017-022>024-027-028-232300-
   Northwest Minnesota

CITY           SKY/WX    TMP DP  RH WIND       PRES   REMARKS
BEMIDJI        PTSUNNY   54  44  69 NE10G16   29.93F
HALLOCK        PTSUNNY   66  36  32 NE13      29.97F
ROSEAU         SUNNY     64  43  45 NE17G25   29.96F
WARROAD        SUNNY     61  46  59 E10       29.98S
CROOKSTON      CLOUDY    57  43  58 NE12G23   29.97S
FOSSTON        MOSUNNY   57  50  77 NE15      29.95F
DETROIT LAKES  CLOUDY    52  45  76 NE9G20    29.94S
MOORHEAD       CLOUDY    55  45  67 NE13      29.95F
PARK RAPIDS    CLOUDY    54  43  66 N14       29.91S
MAHNOMEN       MOCLDY    55  46  71 NE12      29.94F
$$
MNZ006-009>011-018-025>026-232300-
   North Central Minnesota

CITY           SKY/WX    TMP DP  RH WIND       PRES   REMARKS
BAUDETTE       CLOUDY    58  40  51 E13       29.96S
FLAG ISLAND    PTSUNNY   61  36  39 N12       29.95F
INTL FALLS     CLOUDY    56  42  59 E7        29.94S
WASKISH        CLOUDY    54  45  71 NE10G17   29.95S
BIG FORK       CLOUDY    55  45  67 N7G16     29.92S
LONGVILLE      LGT RAIN  52  48  87 N5        29.90S
GRAND RAPIDS   CLOUDY    55  47  74 N14       29.90S
CRANE LAKE     CLOUDY    52  43  71 NE3       29.95S
ORR            CLOUDY    54  41  62 N5        29.90S
COOK           CLOUDY    52  45  76 NE6       29.92S
WALKER         CLOUDY    51  45  82 N7G18     29.92R
$$
MNZ012-019>021-037-232300-
   Northeast Minnesota

CITY           SKY/WX    TMP DP  RH WIND       PRES   REMARKS
DULUTH         PTSUNNY   53  46  77 E13       29.87R
ELY            CLOUDY    54  43  66 NE6       29.90S
HIBBING        CLOUDY    55  45  68 N13       29.88S
EVELETH        PTSUNNY   54  43  67 NE13G23   29.90S
DULUTH HARBOR  CLOUDY    46  45  93 NE13      29.90S FOG
TWO HARBORS    CLOUDY    52  46  82 E10       29.88S
SILVER BAY     CLOUDY    50  46  87 E8        29.88S FOG
GRAND MARAIS     N/A     48  44  86 E6        29.89F
G MARAIS ARPRT CLOUDY    48  41  76 N7        29.89S
$$
MNZ029>031-032-039>041-046>048-054>057-064-232300-
   West Central Minnesota

CITY           SKY/WX    TMP DP  RH WIND       PRES   REMARKS
FERGUS FALLS   PTSUNNY   55  46  71 N12G20    29.89S
WHEATON        LGT RAIN  55  46  71 N15G25    29.92S
MORRIS         CLOUDY    57  46  67 NE13      29.87S
ALEXANDRIA     CLOUDY    57  42  57 NE12      29.88S
ELBOW LAKE     CLOUDY    56  46  67 N16       29.89S
WADENA         PTSUNNY   55  46  71 N18       29.89S
GLENWOOD       MOSUNNY   57  45  62 N13       29.87S
APPLETON       MOSUNNY   59  43  55 N15       29.86S
BENSON         MOSUNNY   57  43  58 NE13G20   29.87F
ORTONVILLE     PTSUNNY   54  48  82 N20       29.88S
MADISON        CLOUDY    59  46  63 N12       29.87S
WILLMAR        PTSUNNY   55  46  71 N17       29.87R
$$
MNZ033>034-036-042>043-049>051-058-059-232300-
   Central Minnesota

CITY           SKY/WX    TMP DP  RH WIND       PRES   REMARKS
ST CLOUD       CLOUDY    58  48  69 NE10G18   29.84S
SAUK CENTRE    MOCLDY    57  42  56 N10G16    29.86S
PAYNESVILLE    CLOUDY    55  47  73 N9        29.85S
AITKIN         CLOUDY    59  45  58 N9G16     29.85S
PINE RIVER     CLOUDY    54  48  82 N13       29.93S
BRAINERD       LGT RAIN  57  43  59 N13       29.87S
STAPLES        LGT RAIN  55  43  62 N12G20    29.88S
LONG PRAIRIE   LGT RAIN  54  43  66 NW7       29.87S
LITTLE FALLS   LGT RAIN  54  43  66 N6        29.86S
LITCHFIELD     CLOUDY    57  50  77 N10       29.83F
BUFFALO        CLOUDY    57  45  65 N12       29.83R
MAPLE LAKE     LGT RAIN  53  49  86 N7        29.84R
HUTCHINSON     MOSUNNY   60  48  63 NW14G21   29.82F
$$
MNZ037-044-045-052-053-232300-
   East Central Minnesota

CITY           SKY/WX    TMP DP  RH WIND       PRES   REMARKS
PRINCETON      PTSUNNY   59  45  58 NE13G18   29.84S
MORA           MOSUNNY   55  43  62 NE5       29.85S
CAMBRIDGE      CLOUDY    61  46  59 N7G16     29.81S
RUSH CITY      CLOUDY    58  46  65 NE5       29.83S
MOOSE LAKE     CLOUDY    57  41  54 NE7       29.84S
HINCKLEY       CLOUDY    59  46  63 NE7       29.84S
CLOQUET        LGT RAIN  50  45  81 E8        29.87R
MCGREGOR       CLOUDY    57  45  62 N10       29.87S
$$
MNZ071>073-080-081-089-090-097-098-232300-
   Southwest Minnesota

CITY           SKY/WX    TMP DP  RH WIND       PRES   REMARKS
MONTEVIDEO     RAIN      54  48  82 E8G16     29.85S
CANBY          CLOUDY    55  50  83 CALM      29.88S
MARSHALL       PTSUNNY   55  47  74 N15       29.84S
REDWOOD FALLS  PTSUNNY   59  42  53 N9        29.83R
OLIVIA         PTSUNNY   54  46  76 N6        29.83F
PIPESTONE      MOSUNNY   54  43  66 N14G24    29.84S
WINDOM         CLOUDY    55  45  67 N14       29.82S
WORTHINGTON    CLOUDY    55  45  68 N16       29.82F
JACKSON        CLOUDY    54  45  71 NE16      29.81S
TRACY          CLOUDY    53  46  78 N12G26    29.84S
SLAYTON        LGT RAIN  50  45  83 N10       29.84F
$$
MNZ065>067-074>077-082>085-091>093-232300-
   South Central Minnesota

CITY           SKY/WX    TMP DP  RH WIND       PRES   REMARKS
MANKATO        LGT RAIN  51  48  89 N10       29.82R
NEW ULM        MOSUNNY   54  46  76 NW3       29.82S
ST JAMES       CLOUDY    55  48  76 N7        29.82S
FAIRMONT       RAIN      51  48  89 NE10      29.81R
GLENCOE        LGT RAIN  57  50  77 NE7G17    29.80S
FARIBAULT      DRIZZLE   55  48  76 N9        29.80S
OWATONNA       RAIN      54  48  82 N7        29.79S
WASECA         LGT RAIN  52  46  82 NE5       29.81S
ALBERT LEA     LGT RAIN  54  50  87 N10       29.78S
$$
MNZ078>079-086>088-094>096-232300-
   Southeast Minnesota

CITY           SKY/WX    TMP DP  RH WIND       PRES   REMARKS
ROCHESTER      LGT RAIN  50  49  96 N12       29.77S
RED WING       LGT RAIN  57  48  72 N5        29.77F
STANTON        LGT RAIN  55  49  78 NE6       29.78S
DODGE CENTER   DRIZZLE   50  48  93 N9        29.78S
WINONA         CLOUDY    55  48  76 N5        29.75S
AUSTIN         DRIZZLE   52  46  82 N7        29.77R
PRESTON        CLOUDY    51  48  89 N8        29.75S
$$
ABBREVIATIONS USED IN REMARKS
   TC - TEMPERATURES IN CELSIUS
  WCI - WIND CHILL INDEX
   HX - HEAT INDEX
  VSB - VISIBILITY
$$




USA.gov is the U.S. government's official web portal to all federal, state and local government web resources and services.